User: anonymous   Login
Location: *
(37.9500°N, 27.3666°E)
Time: 15:11:00
(UTC+00:00)
Language:

USA 229 DEB - Orbit

View from above orbital plane
View from above orbital plane
View from above satellite
View from above satellite

Ground track
Ground track

The orbit data is extracted from the following two-line orbital elements,

1 37391U 11014B   22014.23802008 0.00000000  00000-0  00000-0 0    05
2 37391  63.4349  79.7548 0217406 358.0331   1.9669 13.40832356    03
Epoch (UTC): 14 January 2022 05:42:44
Eccentricity: 0.0217406
inclination: 63.4349°
perigee height: 943 km
apogee height: 1269 km
right ascension of ascending node: 79.7548°
argument of perigee: 358.0331°
revolutions per day: 13.40832356
mean anomaly at epoch: 1.9669°
orbit number at epoch: 0

The dashed part of the orbit path shows where the satellite is in the earth's shadow,  

DLR